Home   Weather   Howell   Past weeks

Flag for USA Past Weather in Howell, Michigan, USA — Yesterday and Last 2 Weeks

Now
22 °F

Light snow. Overcast.


Feels Like: 16 °F
Forecast: 22 / 32 °F
Wind: 5 mph from Southwest

Location: Livingston County Airport

Current Time: Dec 10, 2016 at 9:33:03 pm

Latest Report: Dec 10, 2016 at 8:54 pm


Visibility: 10 mi

Pressure: 30.37 "Hg

Humidity: 85%

Dew Point: 19 °F

Location of HowellLocation

Past Weather in Howell — Graph

°F

Howell Temperature Yesterday

Maximum temperature yesterday: 30 °F (at 11:54 am)
Minimum temperature yesterday: 23 °F (at 11:55 pm)
Average temperature yesterday: 27 °F

High & Low Weather Summary for the Past Weeks

 TemperatureHumidityPressure
High57 °F (Nov 29, 1:55 pm)98% (Dec 4, 11:54 pm)30.42 "Hg (Dec 4, 11:54 pm)
Low21 °F (Dec 10, 6:14 am)41% (Nov 29, 2:35 pm)29.34 "Hg (Nov 29, 12:15 am)
Average36 °F81%29.98 "Hg
* Reported Nov 25 8:15 pm — Dec 10 8:35 pm, Howell, Weather by CustomWeather, © 2016

Note: Actual official high and low records may vary slightly from our data, if they occured in-between our weather recording intervals... More about our weather records

Advertising

Howell Weather History for the Previous 24 Hours

Scroll right to see more
 ConditionsComfort  
Time TempWeatherWind HumidityBarometerVisibility
8:35 pm
Sat, Dec 10
23 °FLight snow. Overcast.6 mph86%30.37 "Hg10 mi
7:55 pm23 °FLight snow. Mostly cloudy.5 mph88%30.38 "Hg7 mi
7:34 pm23 °FLight snow. Mostly cloudy.5 mph89%30.38 "Hg5 mi
7:14 pm23 °FLight snow. Overcast.3 mph90%30.37 "Hg7 mi
6:54 pm23 °FLight snow. Partly cloudy.3 mph89%30.37 "Hg7 mi
6:35 pm23 °FOvercast.3 mph89%30.38 "Hg10 mi
6:14 pm23 °FOvercast.3 mph89%30.38 "Hg10 mi
5:54 pm23 °FLight snow. Mostly cloudy.No wind93%30.38 "Hg7 mi
5:35 pm23 °FLight snow. Overcast.No wind92%30.38 "Hg5 mi
5:14 pm23 °FLight snow. Overcast.No wind92%30.38 "Hg2 mi
4:54 pm24 °FLight snow. Low clouds.3 mph92%30.38 "Hg1 mi
4:15 pm24 °FSnow. Low clouds.6 mph89%30.38 "Hg0 mi
3:54 pm25 °FLight snow. Cloudy.8 mph80%30.38 "Hg2 mi
3:34 pm25 °FLight snow. Overcast.10 mph75%30.38 "Hg7 mi
3:15 pm25 °FLight snow. Mostly cloudy.12 mph73%30.37 "Hg10 mi
2:54 pm26 °FOvercast.10 mph72%30.37 "Hg10 mi
2:14 pm26 °FLight snow. Overcast.12 mph73%30.36 "Hg7 mi
1:54 pm27 °FOvercast.10 mph71%30.37 "Hg10 mi
1:35 pm26 °FLight snow. Mostly cloudy.9 mph75%30.37 "Hg7 mi
1:14 pm26 °FOvercast.14 mph76%30.38 "Hg10 mi
12:55 pm26 °FLight snow. Mostly cloudy.9 mph76%30.38 "Hg7 mi
12:14 pm25 °FLight snow. Mostly cloudy.10 mph80%30.39 "Hg4 mi
11:55 am25 °FLight snow. Mostly cloudy.12 mph80%30.40 "Hg5 mi
11:35 am24 °FLight snow. Mostly cloudy.12 mph81%30.40 "Hg3 mi
11:14 am24 °FLight snow. Overcast.9 mph81%30.41 "Hg2 mi
10:55 am24 °FLight snow. Mostly cloudy.9 mph81%30.42 "Hg4 mi
10:34 am24 °FLight snow. Mostly cloudy.9 mph82%30.42 "Hg5 mi
10:14 am24 °FLight snow. Overcast.9 mph83%30.42 "Hg2 mi
9:55 am23 °FLight snow. Mostly cloudy.9 mph84%30.42 "Hg3 mi
9:15 am23 °FLight snow. Cloudy.6 mph85%30.41 "Hg3 mi
8:54 am22 °FLight snow. Cloudy.8 mph85%30.42 "Hg5 mi
8:34 am22 °FLight snow. Cloudy.8 mph86%30.42 "Hg7 mi
8:15 am22 °FLight snow. Cloudy.7 mph85%30.42 "Hg7 mi
7:54 am22 °FLight snow. Overcast.7 mph85%30.42 "Hg7 mi
7:34 am22 °FMostly cloudy.9 mph85%30.42 "Hg10 mi
7:15 am22 °FMostly cloudy.7 mph85%30.41 "Hg10 mi
6:54 am22 °FMostly cloudy.6 mph84%30.41 "Hg10 mi
6:35 am21 °FPartly cloudy.7 mph85%30.41 "Hg10 mi
6:14 am21 °FClear.7 mph84%30.41 "Hg10 mi
5:54 am21 °FClear.7 mph85%30.40 "Hg10 mi
5:35 am21 °FPassing clouds.9 mph86%30.40 "Hg10 mi
5:14 am22 °FPassing clouds.8 mph86%30.40 "Hg10 mi
4:55 am23 °FPassing clouds.9 mph87%30.40 "Hg10 mi
4:34 am22 °FPartly cloudy.7 mph86%30.39 "Hg10 mi
4:14 am23 °FMostly cloudy.7 mph86%30.39 "Hg10 mi
3:54 am23 °FMostly cloudy.7 mph85%30.39 "Hg10 mi
3:34 am23 °FOvercast.9 mph86%30.40 "Hg10 mi
3:15 am23 °FMostly cloudy.8 mph85%30.40 "Hg10 mi
2:54 am23 °FMostly cloudy.9 mph85%30.40 "Hg10 mi
2:35 am23 °FMostly cloudy.8 mph85%30.39 "Hg10 mi
2:14 am23 °FMostly cloudy.8 mph85%30.38 "Hg10 mi
1:55 am23 °FMostly cloudy.10 mph86%30.38 "Hg10 mi
1:34 am23 °FMostly cloudy.10 mph84%30.38 "Hg10 mi
1:14 am23 °FMostly cloudy.7 mph83%30.38 "Hg10 mi
12:55 am23 °FMostly cloudy.8 mph84%30.38 "Hg10 mi
12:34 am24 °FOvercast.8 mph81%30.39 "Hg10 mi
12:14 am24 °FOvercast.8 mph78%30.39 "Hg10 mi
11:55 pm
Fri, Dec 9
23 °FOvercast.9 mph80%30.39 "Hg10 mi
11:34 pm24 °FOvercast.7 mph78%30.39 "Hg10 mi
11:15 pm24 °FOvercast.7 mph79%30.39 "Hg10 mi
10:54 pm24 °FOvercast.8 mph79%30.39 "Hg10 mi
10:34 pm24 °FMostly cloudy.8 mph80%30.39 "Hg10 mi
10:15 pm24 °FMostly cloudy.10 mph79%30.39 "Hg10 mi
9:54 pm24 °FOvercast.9 mph82%30.39 "Hg10 mi
9:35 pm24 °FOvercast.8 mph81%30.39 "Hg10 mi
9:14 pm24 °FOvercast.8 mph78%30.39 "Hg10 mi
Weather by CustomWeather, © 2016

See weather overviewHow to use our weather pages